This is the latest recevied weather packets stored in our database for station/object KB1RMA-13. If no packets are shown the sender has not sent any weather packets the latest 10 day(s).
| Time | Temp. | Humidity | Pressure | Rain* | Wind** | Luminosity | Snow |
|---|---|---|---|---|---|---|---|
| 1777924263 | 21.67° C | 31% | 1005.6 hPa | 0 mm | - | 197 W/m² | - |
| 1777923960 | 21.67° C | 31% | 1005.6 hPa | 0 mm | - | 114 W/m² | - |
| 1777923655 | 22.22° C | 29% | 1005.5 hPa | 0 mm | - | 669 W/m² | - |
| 1777923352 | 22.22° C | 30% | 1005.8 hPa | 0 mm | - | 663 W/m² | - |
| 1777923051 | 21.67° C | 31% | 1005.7 hPa | 0 mm | - | 730 W/m² | - |
| 1777922749 | 21.67° C | 30% | 1005.7 hPa | 0 mm | - | 713 W/m² | - |
| 1777922447 | 22.22° C | 30% | 1005.8 hPa | 0 mm | - | 729 W/m² | - |
| 1777922144 | 22.22° C | 30% | 1005.9 hPa | 0 mm | - | 747 W/m² | - |
| 1777921840 | 21.67° C | 30% | 1005.9 hPa | 0 mm | - | 724 W/m² | - |
| 1777921537 | 22.22° C | 31% | 1005.9 hPa | 0 mm | - | 733 W/m² | - |
| 1777921232 | 21.67° C | 30% | 1006 hPa | 0 mm | - | 757 W/m² | - |
| 1777920930 | 22.22° C | 31% | 1006 hPa | 0 mm | - | 751 W/m² | - |
| 1777920626 | 21.67° C | 30% | 1006 hPa | 0 mm | - | 771 W/m² | - |
| 1777920321 | 21.67° C | 30% | 1006.1 hPa | 0 mm | - | 782 W/m² | - |
| 1777920017 | 21.67° C | 32% | 1006.2 hPa | 0 mm | - | 787 W/m² | - |
| 1777919715 | 21.67° C | 30% | 1006.2 hPa | 0 mm | - | 802 W/m² | - |
| 1777919413 | 21.11° C | 30% | 1006.2 hPa | 0 mm | - | 812 W/m² | - |
| 1777919109 | 21.11° C | 30% | 1006.3 hPa | 0 mm | - | 820 W/m² | - |
| 1777918807 | 21.67° C | 31% | 1006.3 hPa | 0 mm | - | 825 W/m² | - |
| 1777918504 | 21.11° C | 30% | 1006.4 hPa | 0 mm | - | 839 W/m² | - |
| 1777918202 | 21.67° C | 32% | 1006.4 hPa | 0 mm | - | 841 W/m² | - |
| 1777917900 | 21.67° C | 31% | 1006.4 hPa | 0 mm | - | 848 W/m² | - |
| 1777917599 | 20.56° C | 32% | 1006.2 hPa | 0 mm | - | 857 W/m² | - |
| 1777917295 | 21.11° C | 31% | 1006.5 hPa | 0 mm | - | 859 W/m² | - |
| 1777916993 | 21.11° C | 30% | 1006.4 hPa | 0 mm | - | 866 W/m² | - |
* Rain latest hour (hover to see other rain measurements)
** Current wind speed in m/s (hover to see current wind gust speed)